Simultaneous Nadir Overpasses (SNOs) Predictions

Prediction of SNOs between AQUA and METOP-A Satellite Orbit:

Table of predicted SNOs for the next 14.0 days since TLE Epoch: 12/28/2012
Index Date (AQUA) Time (AQUA) Lat,Lon (AQUA) SZA (AQUA ) Date (METOP-A) Time (METOP-A) Lat,Lon (METOP-A) SZA (METOP-A ) Distance(km) Time Diff (sec)
1 12/29/2012 11:23:57 73.84, 3.12 97.03 12/29/2012 11:23:06 73.81, 3.12 97.01 3.77 51
2 12/29/2012 12:13:23 -73.86, 170.71 82.95 12/29/2012 12:13:46 -73.88, 170.61 82.94 3.46 23
3 01/01/2013 06:58:11 73.80, 69.65 96.79 01/01/2013 06:57:27 73.82, 69.54 96.82 3.86 44
4 01/01/2013 07:47:38 -73.87,-122.86 83.14 01/01/2013 07:48:07 -73.89,-122.96 83.12 3.60 29
5 01/04/2013 02:32:25 73.84, 136.02 96.57 01/04/2013 02:31:47 73.86, 136.04 96.60 2.22 38
6 01/04/2013 03:21:52 -73.90, -56.48 83.37 01/04/2013 03:22:27 -73.93, -56.45 83.34 3.22 35
7 01/06/2013 22:06:36 73.84,-157.54 96.26 01/06/2013 22:06:07 73.83,-157.62 96.25 3.18 29
8 01/06/2013 22:56:03 -73.91, 9.96 83.68 01/06/2013 22:56:47 -73.91, 9.90 83.68 1.96 44
9 01/09/2013 16:51:07 -73.21, 102.64 84.79 01/09/2013 16:50:01 -73.14, 99.89 84.74 88.62 66
10 01/09/2013 17:40:47 73.88, -91.16 95.93 01/09/2013 17:40:26 73.88, -91.08 95.93 2.18 21
11 01/09/2013 18:30:14 -73.94, 76.35 84.02 01/09/2013 18:31:07 -73.91, 76.32 84.05 3.16 53




NCC Satellite Simultaneous Nadir Overpasses (SNOs) Prediction Service
